timestamp,surface_pressure_avg,surface_temp_avg,battery_voltage,lat,long
2021-02-05 00:09:01+00:00,244.7181,2.2,12.57,47.84626,-54.09684
2021-02-05 00:19:01+00:00,242.1148,2.2,12.57,47.84626,-54.09684
2021-02-05 00:29:01+00:00,241.4197,2.2,12.57,47.84626,-54.09684
2021-02-05 00:39:01+00:00,246.2397,2.2,12.57,47.84626,-54.09684
2021-02-05 00:49:01+00:00,246.9764,2.2,12.57,47.84626,-54.09684
2021-02-05 00:59:01+00:00,244.4098,2.2,12.57,47.84626,-54.09684
2021-02-05 01:09:01+00:00,244.2664,2.2,12.57,47.84626,-54.09684
2021-02-05 01:19:01+00:00,251.0664,2.2,12.57,47.84626,-54.09684
2021-02-05 01:29:01+00:00,256.7198,2.2,12.57,47.84626,-54.09684
2021-02-05 01:39:01+00:00,258.9497,2.2,12.57,47.84626,-54.09684
2021-02-05 01:49:01+00:00,261.9381,2.2,12.57,47.84626,-54.09684
2021-02-05 01:59:01+00:00,271.6131,2.2,12.57,47.84626,-54.09684
2021-02-05 02:09:01+00:00,274.1248,2.2,12.57,47.84626,-54.09684
2021-02-05 02:19:01+00:00,275.9581,2.2,12.57,47.84626,-54.09684
2021-02-05 02:29:01+00:00,283.3713,2.2,12.57,47.84626,-54.09684
2021-02-05 02:39:01+00:00,299.7513,2.2,12.57,47.84626,-54.09684
2021-02-05 02:49:01+00:00,300.3896,2.2,12.57,47.84626,-54.09684
2021-02-05 02:59:01+00:00,297.5664,2.18,12.57,47.84626,-54.09684
2021-02-05 03:09:01+00:00,309.7663,2.15,12.57,47.84626,-54.09684
2021-02-05 03:19:01+00:00,329.6463,2.14,12.57,47.84626,-54.09684
2021-02-05 03:29:01+00:00,331.2163,2.17,12.57,47.84626,-54.09684
2021-02-05 03:39:01+00:00,327.0231,2.19,12.57,47.84626,-54.09684
2021-02-05 03:49:01+00:00,336.103,2.19,12.57,47.84626,-54.09684
2021-02-05 03:59:01+00:00,338.3563,2.18,12.57,47.84626,-54.09684
2021-02-05 04:09:01+00:00,335.9313,2.16,12.57,47.84626,-54.09684
2021-02-05 04:19:01+00:00,343.5997,2.12,12.57,47.84626,-54.09684
2021-02-05 04:29:01+00:00,345.3762,2.14,12.57,47.84626,-54.09684
2021-02-05 04:39:01+00:00,348.9946,2.14,12.57,47.84626,-54.09684
2021-02-05 04:49:01+00:00,353.9896,2.16,12.57,47.84626,-54.09684
2021-02-05 04:59:01+00:00,361.8647,2.17,12.57,47.84626,-54.09684
2021-02-05 05:09:01+00:00,358.1996,2.16,12.57,47.84626,-54.09684
2021-02-05 05:19:01+00:00,364.8528,2.14,12.57,47.84626,-54.09684
2021-02-05 05:29:01+00:00,372.1446,2.14,12.57,47.84626,-54.09684
2021-02-05 05:39:01+00:00,369.2079,2.1,12.57,47.84626,-54.09684
2021-02-05 05:49:01+00:00,365.1262,2.11,12.57,47.84626,-54.09684
2021-02-05 05:59:01+00:00,371.7696,2.1,12.57,47.84626,-54.09684
2021-02-05 06:09:01+00:00,375.3212,2.1,12.57,47.84626,-54.09684
2021-02-05 06:19:01+00:00,367.0312,2.1,12.57,47.84626,-54.09684
2021-02-05 06:29:01+00:00,368.2747,2.12,12.57,47.84626,-54.09684
2021-02-05 06:39:01+00:00,374.4796,2.12,12.57,47.84626,-54.09684
2021-02-05 06:49:01+00:00,371.5762,2.12,12.57,47.84626,-54.09684
2021-02-05 06:59:01+00:00,362.2996,2.13,12.57,47.84626,-54.09684
2021-02-05 07:09:01+00:00,360.2379,2.14,12.57,47.84626,-54.09684
2021-02-05 07:19:01+00:00,360.8879,2.15,12.57,47.84626,-54.09684
2021-02-05 07:29:01+00:00,349.8679,2.16,12.57,47.84626,-54.09684
2021-02-05 07:39:01+00:00,339.2413,2.15,12.57,47.84626,-54.09684
2021-02-05 07:49:01+00:00,334.4613,2.15,12.57,47.84626,-54.09684
2021-02-05 07:59:01+00:00,321.903,2.17,12.57,47.84626,-54.09684
2021-02-05 08:09:01+00:00,313.8747,2.17,12.57,47.84626,-54.09684
2021-02-05 08:19:01+00:00,311.8297,2.18,12.57,47.84626,-54.09684
2021-02-05 08:29:01+00:00,304.678,2.18,12.57,47.84626,-54.09684
2021-02-05 08:39:01+00:00,293.4314,2.16,12.57,47.84626,-54.09684
2021-02-05 08:49:01+00:00,285.318,2.17,12.57,47.84626,-54.09684
2021-02-05 08:59:01+00:00,278.7281,2.15,12.57,47.84626,-54.09684
2021-02-05 09:09:01+00:00,270.3598,2.13,12.57,47.84626,-54.09684
2021-02-05 09:19:01+00:00,267.0014,2.12,12.49,47.84626,-54.09684
2021-02-05 09:29:01+00:00,259.1681,2.12,12.49,47.84626,-54.09684
2021-02-05 09:39:01+00:00,250.1781,2.13,12.49,47.84626,-54.09684
2021-02-05 09:49:01+00:00,245.8364,2.13,12.49,47.84626,-54.09684
2021-02-05 09:59:01+00:00,244.0664,2.14,12.49,47.84626,-54.09684
2021-02-05 10:09:01+00:00,239.6248,2.18,12.49,47.84626,-54.09684
2021-02-05 10:19:01+00:00,234.4014,2.2,12.49,47.84626,-54.09684
2021-02-05 10:29:01+00:00,233.5114,2.2,12.49,47.84626,-54.09684
2021-02-05 10:39:01+00:00,231.8148,2.2,12.49,47.84626,-54.09684
2021-02-05 10:49:01+00:00,229.5064,2.23,12.49,47.84626,-54.09684
2021-02-05 10:59:01+00:00,232.8598,2.24,12.49,47.84626,-54.09684
2021-02-05 11:09:01+00:00,235.3381,2.23,12.49,47.84626,-54.09684
2021-02-05 11:19:01+00:00,233.4881,2.21,12.49,47.84626,-54.09684
2021-02-05 11:29:01+00:00,230.2281,2.2,12.49,47.84626,-54.09684
2021-02-05 11:39:01+00:00,232.5414,2.2,12.49,47.84626,-54.09684
2021-02-05 11:49:01+00:00,231.7031,2.2,12.49,47.84626,-54.09684
2021-02-05 11:59:01+00:00,228.6581,2.2,12.49,47.84626,-54.09684
2021-02-05 12:09:01+00:00,230.7931,2.2,12.49,47.84626,-54.09684
2021-02-05 12:19:01+00:00,236.2198,2.2,12.57,47.84626,-54.09684
2021-02-05 12:29:01+00:00,241.5831,2.2,12.57,47.84626,-54.09684
2021-02-05 12:39:01+00:00,244.3814,2.2,12.57,47.84626,-54.09684
2021-02-05 12:49:01+00:00,248.8698,2.2,12.57,47.84626,-54.09684
2021-02-05 12:59:01+00:00,250.6031,2.2,12.57,47.84626,-54.09684
2021-02-05 13:09:01+00:00,255.0998,2.2,12.57,47.84626,-54.09684
2021-02-05 13:19:01+00:00,251.8548,2.2,12.65,47.84626,-54.09684
2021-02-05 13:29:01+00:00,250.0731,2.2,12.65,47.84626,-54.09684
2021-02-05 13:39:01+00:00,250.3447,2.2,12.65,47.84626,-54.09684
2021-02-05 13:49:01+00:00,252.4698,2.2,12.65,47.84626,-54.09684
2021-02-05 13:59:01+00:00,252.4847,2.2,12.65,47.84626,-54.09684
2021-02-05 14:09:01+00:00,257.013,2.2,12.65,47.84626,-54.09684
2021-02-05 14:19:01+00:00,265.9764,2.16,12.97,47.84626,-54.09684
2021-02-05 14:29:01+00:00,267.3214,2.15,12.97,47.84626,-54.09684
2021-02-05 14:39:01+00:00,265.8115,2.16,12.97,47.84626,-54.09684
2021-02-05 14:49:01+00:00,272.0798,2.17,12.97,47.84626,-54.09684
2021-02-05 14:59:01+00:00,280.1415,2.17,12.97,47.84626,-54.09684
2021-02-05 15:09:01+00:00,280.1714,2.18,12.97,47.84626,-54.09684
2021-02-05 15:19:01+00:00,276.2347,2.19,12.97,47.84626,-54.09684
2021-02-05 15:29:01+00:00,283.933,2.2,12.97,47.84626,-54.09684
2021-02-05 15:39:01+00:00,292.953,2.2,12.97,47.84626,-54.09684
2021-02-05 15:49:01+00:00,299.2914,2.2,12.97,47.84626,-54.09684
2021-02-05 15:59:01+00:00,305.4796,2.18,12.97,47.84626,-54.09684
2021-02-05 16:09:01+00:00,310.133,2.15,12.97,47.84626,-54.09684
2021-02-05 16:19:01+00:00,314.063,2.1,13.05,47.84626,-54.09684
2021-02-05 16:29:01+00:00,321.553,2.1,13.05,47.84626,-54.09684
2021-02-05 16:39:01+00:00,320.618,2.1,13.05,47.84626,-54.09684
2021-02-05 16:49:01+00:00,316.4012,2.1,13.05,47.84626,-54.09684
2021-02-05 16:59:01+00:00,317.8864,2.1,13.05,47.84626,-54.09684
2021-02-05 17:09:01+00:00,327.608,2.1,13.05,47.84626,-54.09684
2021-02-05 17:19:01+00:00,326.8263,2.1,12.97,47.84626,-54.09684
2021-02-05 17:29:01+00:00,332.0696,2.1,12.97,47.84626,-54.09684
2021-02-05 17:39:01+00:00,339.43300000000005,2.1,12.97,47.84626,-54.09684
2021-02-05 17:49:01+00:00,336.0029,2.1,12.97,47.84626,-54.09684
2021-02-05 17:59:01+00:00,333.2146,2.1,12.97,47.84626,-54.09684
2021-02-05 18:09:01+00:00,337.6946,2.1,12.97,47.84626,-54.09684
2021-02-05 18:19:01+00:00,340.0764,2.12,12.89,47.84626,-54.09684
2021-02-05 18:29:01+00:00,333.1346,2.1,12.89,47.84626,-54.09684
2021-02-05 18:39:01+00:00,330.3781,2.1,12.89,47.84626,-54.09684
2021-02-05 18:49:01+00:00,333.4063,2.1,12.89,47.84626,-54.09684
2021-02-05 18:59:01+00:00,333.9612,2.1,12.89,47.84626,-54.09684
2021-02-05 19:09:01+00:00,333.4163,2.1,12.89,47.84626,-54.09684
2021-02-05 19:19:01+00:00,333.8047,2.1,12.81,47.84626,-54.09684
2021-02-05 19:29:01+00:00,331.8863,2.1,12.81,47.84626,-54.09684
2021-02-05 19:39:01+00:00,319.5463,2.1,12.81,47.84626,-54.09684
2021-02-05 19:49:01+00:00,310.2613,2.1,12.81,47.84626,-54.09684
2021-02-05 19:59:01+00:00,307.3147,2.1,12.81,47.84626,-54.09684
2021-02-05 20:09:01+00:00,300.0447,2.1,12.81,47.84626,-54.09684
2021-02-05 20:19:01+00:00,291.0714,2.1,12.73,47.84626,-54.09684
2021-02-05 20:29:01+00:00,288.7231,2.1,12.73,47.84626,-54.09684
2021-02-05 20:39:01+00:00,284.7414,2.1,12.73,47.84626,-54.09684
2021-02-05 20:49:01+00:00,276.8547,2.1,12.73,47.84626,-54.09684
2021-02-05 20:59:01+00:00,271.5464,2.1,12.73,47.84626,-54.09684
2021-02-05 21:09:01+00:00,267.2381,2.1,12.73,47.84626,-54.09684
2021-02-05 21:19:01+00:00,260.2347,2.1,12.65,47.84626,-54.09684
2021-02-05 21:29:01+00:00,253.1364,2.1,12.65,47.84626,-54.09684
2021-02-05 21:39:01+00:00,245.5298,2.1,12.65,47.84626,-54.09684
2021-02-05 21:49:01+00:00,236.0147,2.1,12.65,47.84626,-54.09684
2021-02-05 21:59:01+00:00,230.3681,2.1,12.65,47.84626,-54.09684
2021-02-05 22:09:01+00:00,230.4598,2.1,12.65,47.84626,-54.09684
2021-02-05 22:19:01+00:00,230.1848,2.1,12.57,47.84626,-54.09684
2021-02-05 22:29:01+00:00,228.6414,2.1,12.57,47.84626,-54.09684
2021-02-05 22:39:01+00:00,231.4331,2.1,12.57,47.84626,-54.09684
2021-02-05 22:49:01+00:00,227.9464,2.1,12.57,47.84626,-54.09684
2021-02-05 22:59:01+00:00,221.0547,2.1,12.57,47.84626,-54.09684
2021-02-05 23:09:01+00:00,218.9498,2.1,12.57,47.84626,-54.09684
2021-02-05 23:19:01+00:00,218.3514,2.1,12.57,47.84626,-54.09684
2021-02-05 23:29:01+00:00,218.1331,2.13,12.57,47.84626,-54.09684
2021-02-05 23:39:01+00:00,216.9531,2.2,12.57,47.84626,-54.09684
2021-02-05 23:49:01+00:00,217.1064,2.2,12.57,47.84626,-54.09684
2021-02-05 23:59:01+00:00,218.2848,2.21,12.57,47.84626,-54.09684
